OneWeb SL0112

operational
NORAD ID: 48051 Int'l Des: 2021-025 Owner: ONEWEBN Country: UK Constellation: oneweb
LEOCIRCULARPOLARONEWEB_TYPE

关于 OneWeb SL0112

正在加载描述...

实时位置

正在加载3D地球...

即将过境

高度历史

Altitude vs Time

uPlot chart will show altitude changes over time

两行轨道根数

1 48051U 21025K 25351.73082740 -.00000169 00000-0 -49735-3 0 9994
2 48051 87.8985 356.2627 0001727 92.5872 267.5455 13.13472113229773
Epoch: Dec 17, 2025 • Age: 16 hours

当前状态

高度 1220.7 km
速度 7.24 km/s
星下点 -27.76°S, 119.95°E
发射日期 Mar 25, 2021
运行时间 4.7 years
类型 internet

技术详情

分类 Payload
质量 148.00 kg
干质量 140.00 kg
总质量 148.00 kg
长度 1.30 m
直径 1.00 m
跨度 5.00 m
形状 Trapezoid+2 pan
制造商 ONEWUS
平台类型 ARROW
阶段状态 In Orbit
所有者/国家 ONEWEBN/UK

大型星座

Loading constellations...